This is the latest recevied weather packets stored in our database for station/object KC2TER. If no packets are shown the sender has not sent any weather packets the latest 10 day(s).
| Time | Temp. | Humidity | Pressure | Rain* | Wind** | Luminosity | Snow |
|---|---|---|---|---|---|---|---|
| 1777376145 | 8.89° C | 77% | 1022.3 hPa | 0 mm | - | 46 W/m² | - |
| 1777375844 | 8.89° C | 78% | 1022.3 hPa | 0 mm | - | 106 W/m² | - |
| 1777375539 | 8.33° C | 78% | 1022.2 hPa | 0 mm | - | 90 W/m² | - |
| 1777375236 | 7.78° C | 80% | 1022.2 hPa | 0 mm | - | 53 W/m² | - |
| 1777374931 | 7.22° C | 82% | 1022.3 hPa | 0 mm | - | 107 W/m² | - |
| 1777374627 | 6.67° C | 84% | 1022.2 hPa | 0 mm | - | 36 W/m² | - |
| 1777374324 | 6.67° C | 85% | 1022 hPa | 0 mm | - | 34 W/m² | - |
| 1777374020 | 6.11° C | 86% | 1022 hPa | 0 mm | - | 28 W/m² | - |
| 1777373717 | 6.11° C | 88% | 1022.2 hPa | 0 mm | - | 33 W/m² | - |
| 1777373415 | 5.56° C | 88% | 1022.1 hPa | 0 mm | - | 24 W/m² | - |
| 1777373110 | 5.56° C | 89% | 1022 hPa | 0 mm | - | 31 W/m² | - |
| 1777372806 | 5.56° C | 89% | 1021.7 hPa | 0 mm | - | 23 W/m² | - |
| 1777372505 | 5.56° C | 88% | 1021.9 hPa | 0 mm | - | 17 W/m² | - |
| 1777372203 | 5.56° C | 88% | 1021.8 hPa | 0 mm | - | 15 W/m² | - |
| 1777371899 | 5.56° C | 88% | 1022 hPa | 0 mm | - | 12 W/m² | - |
| 1777371595 | 5.56° C | 87% | 1022.1 hPa | 0 mm | - | 10 W/m² | - |
| 1777371292 | 5.56° C | 87% | 1021.8 hPa | 0 mm | - | 7 W/m² | - |
| 1777370989 | 5.56° C | 86% | 1021.9 hPa | 0 mm | - | 4 W/m² | - |
| 1777370683 | 5.56° C | 86% | 1021.9 hPa | 0 mm | - | 3 W/m² | - |
| 1777370381 | 5.56° C | 86% | 1022 hPa | 0 mm | - | 0 W/m² | - |
| 1777370076 | 5.56° C | 86% | 1021.9 hPa | 0 mm | - | 0 W/m² | - |
| 1777369774 | 6.11° C | 86% | 1022.1 hPa | 0 mm | - | 0 W/m² | - |
| 1777369473 | 6.11° C | 86% | 1022.3 hPa | 0 mm | - | 0 W/m² | - |
| 1777369169 | 6.11° C | 86% | 1022.3 hPa | 0 mm | - | 0 W/m² | - |
| 1777368867 | 6.11° C | 85% | 1022.4 hPa | 0 mm | - | 0 W/m² | - |
* Rain latest hour (hover to see other rain measurements)
** Current wind speed in m/s (hover to see current wind gust speed)